Regional Weather Roundup
Issued by NWS

Home | Current Version | Previous Version | Graphics & Text | Print | Product List | Glossary On
Versions: 1 2 3 4 5 6 7 8 9 10 11 12 13 14 15 16 17 18 19 20 21 22 23 24 25 26 27 28 29 30 31 32 33 34 35 36 37 38 39 40 41 42 43 44 45 46 47 48 49 50
544
ASUS43 KLMK 262010
RWRKY
KENTUCKY REGIONAL WEATHER ROUNDUP
NATIONAL WEATHER SERVICE LOUISVILLE KY
300 PM EST SUN FEB 26 2017

NOTE "FAIR" INDICATES FEW OR NO CLOUDS BELOW 12,000 FEET
WITH NO SIGNIFICANT WEATHER AND/OR OBSTRUCTIONS TO VISIBILITY.

KYZ001>023-026-027-061>063-070>075-262100-
WESTERN AND SOUTH CENTRAL KENTUCKY

CITY           SKY/WX    TMP DP  RH WIND       PRES   REMARKS
PADUCAH        CLOUDY    52  18  26 VRB5      30.12F
HENDERSON      SUNNY     52  18  25 S12       30.14F
OWENSBORO      SUNNY     50  16  25 S10       30.15F
HOPKINSVILLE   CLOUDY    53  15  22 S9        30.13F
BOWLING GREEN  SUNNY     53  16  23 SW9       30.17F
GLASGOW        SUNNY     51  16  25 SW3       30.18F
$$

KYZ024-025-028>034-038-045-046-053-262100-
NORTH CENTRAL KENTUCKY

CITY           SKY/WX    TMP DP  RH WIND       PRES   REMARKS
LOUISVILLE/SDF MOSUNNY   51  12  21 VRB5      30.16F
LOUISVILLE/LOU SUNNY     49  15  25 S9        30.17F
FORT KNOX      SUNNY     49  15  26 S8        30.15F
$$

KYZ035>037-039>044-047>052-055>060-089>105-262100-
NORTHEAST KENTUCKY

CITY           SKY/WX    TMP DP  RH WIND       PRES   REMARKS
LEXINGTON      SUNNY     48  13  24 S12       30.18F
COVINGTON      MOSUNNY   45  13  27 SW9G16    30.14F
FRANKFORT      SUNNY     48  13  24 VRB7      30.16F
$$

KYZ054-064>069-076>088-106>120-262100-
SOUTHEAST KENTUCKY

CITY           SKY/WX    TMP DP  RH WIND       PRES   REMARKS
JACKSON        SUNNY     46  15  28 VRB3      30.18F
LONDON         SUNNY     46  13  26 SW8       30.19F
SOMERSET       SUNNY     46  14  27 S6        30.21S
MIDDLESBORO    SUNNY     48  17  28 SW6       30.21S
MONTICELLO     CLEAR     50  17  27 W13       30.20F
$$





USA.gov is the U.S. government's official web portal to all federal, state and local government web resources and services.